This demonstration page uses our WeatherBlox Daily Observations layout. Learn more.

Left ArrowRight Arrow

Hourly Observations for June 13, 2017

Temp ( °F °C ) Dew Point ( °F °C ) Humidity (%) Winds ( mph kmh ) Pressure ( in mb ) Visibility ( mi km ) Precip ( " mm )
12:06 am 00:06 Clear 81 27 68 20 66 66 SSW 5 7 30.00 1016 10 16 N/A
12:27 am 00:27 Clear 79 26 68 20 70 70 SSW 6 9 30.00 1016 10 16 N/A
12:47 am 00:47 Clear 79 26 70 21 74 74 SSW 6 9 30.00 1016 10 16 N/A
1:07 am 01:07 Clear 79 26 70 21 74 74 SW 7 11 30.00 1016 10 16 N/A
1:27 am 01:27 Clear 79 26 70 21 74 74 SSW 5 7 30.00 1016 10 16 N/A
1:46 am 01:46 Clear 79 26 70 21 74 74 SSW 6 9 30.00 1016 10 16 N/A
2:07 am 02:07 Clear 77 25 70 21 79 79 S 5 7 30.00 1016 10 16 N/A
2:26 am 02:26 Clear 77 25 70 21 79 79 S 6 9 29.97 1015 10 16 N/A
2:46 am 02:46 Clear 77 25 70 21 79 79 SSW 8 13 29.97 1015 10 16 N/A
3:07 am 03:07 Clear 77 25 70 21 79 79 SSW 8 13 29.97 1015 10 16 N/A
3:26 am 03:26 Clear 77 25 70 21 79 79 SSW 7 11 29.97 1015 10 16 N/A
3:47 am 03:47 Clear 77 25 70 21 79 79 SSW 7 11 30.00 1016 10 16 N/A
4:07 am 04:07 Clear 75 24 70 21 83 83 SSW 6 9 30.00 1016 10 16 N/A
4:26 am 04:26 Clear 75 24 70 21 83 83 S 6 9 30.00 1016 10 16 N/A
4:47 am 04:47 Clear 75 24 70 21 83 83 SSW 5 7 30.00 1016 10 16 N/A
5:06 am 05:06 Clear 73 23 70 21 89 89 SSE 5 7 30.00 1016 10 16 N/A
5:27 am 05:27 Clear 73 23 70 21 89 89 SSE 5 7 30.00 1016 10 16 N/A
5:46 am 05:46 Clear 73 23 70 21 89 89 N N/A 30.00 1016 10 16 N/A
6:06 am 06:06 Clear 72 22 70 21 94 94 N N/A 30.00 1016 10 16 N/A
6:27 am 06:27 Sunny 73 23 70 21 89 89 N N/A 30.00 1016 10 16 N/A
6:46 am 06:46 Sunny 72 22 70 21 94 94 N N/A 30.00 1016 10 16 N/A
7:07 am 07:07 Sunny 72 22 70 21 94 94 N N/A 30.00 1016 10 16 N/A
7:26 am 07:26 Sunny 73 23 70 21 89 89 N N/A 30.03 1017 10 16 N/A
7:47 am 07:47 Sunny 75 24 70 21 83 83 N N/A 30.03 1017 10 16 N/A
8:07 am 08:07 Sunny 77 25 72 22 83 83 N N/A 30.03 1017 10 16 N/A
8:26 am 08:26 Partly Cloudy 79 26 72 22 79 79 W 3 6 30.03 1017 10 16 N/A
8:47 am 08:47 Mostly Cloudy 81 27 72 22 74 74 WSW 5 7 30.03 1017 10 16 N/A
9:06 am 09:06 Mostly Cloudy 81 27 72 22 74 74 SW 8 13 30.03 1017 10 16 N/A
9:27 am 09:27 Mostly Cloudy 81 27 72 22 74 74 SW 7 11 30.03 1017 10 16 N/A
9:46 am 09:46 Partly Cloudy 81 27 72 22 74 74 SW 5 7 30.03 1017 10 16 N/A
10:07 am 10:07 Sunny 82 28 72 22 70 70 WSW 6 9 30.03 1017 10 16 N/A
10:27 am 10:27 Partly Cloudy 84 29 72 22 66 66 WSW 6 9 30.03 1017 10 16 N/A
10:46 am 10:46 Mostly Cloudy 82 28 72 22 70 70 W 10 17 30.03 1017 10 16 N/A
11:07 am 11:07 Partly Cloudy 84 29 72 22 66 66 WSW 12 19 30.00 1016 10 16 N/A
11:26 am 11:26 Partly Cloudy 86 30 72 22 62 62 W 12 19 30.00 1016 10 16 N/A
11:47 am 11:47 Mostly Cloudy 75 24 64 18 69 69 WNW 28 44 30.00 1016 7 11 N/A
12:06 pm 12:06 Cloudy 73 23 68 20 83 83 N N/A 30.03 1017 4 6 N/A
12:27 pm 12:27 Partly Cloudy 75 24 70 21 83 83 N N/A 30.00 1016 10 16 N/A
12:46 pm 12:46 Mostly Cloudy 75 24 72 22 89 89 ESE 7 11 30.03 1017 10 16 N/A
1:07 pm 13:07 Mostly Cloudy 75 24 70 21 83 83 S 6 9 30.03 1017 10 16 N/A
1:27 pm 13:27 Sunny 75 24 70 21 83 83 SW 5 7 30.03 1017 10 16 N/A
1:46 pm 13:46 Sunny 75 24 70 21 83 83 WSW 8 13 30.00 1016 10 16 N/A
2:07 pm 14:07 Sunny 75 24 68 20 78 78 SSW 9 15 30.03 1017 10 16 N/A
2:26 pm 14:26 Sunny 75 24 68 20 78 78 SSW 7 11 30.03 1017 10 16 N/A
2:46 pm 14:46 Sunny 73 23 68 20 83 83 S 8 13 30.03 1017 10 16 N/A
3:07 pm 15:07 Partly Cloudy 73 23 68 20 83 83 SW 7 11 30.00 1016 10 16 N/A
3:26 pm 15:26 Partly Cloudy 75 24 68 20 78 78 SSW 3 6 30.00 1016 10 16 N/A
3:47 pm 15:47 Sunny 75 24 70 21 83 83 S 7 11 30.00 1016 10 16 N/A
4:06 pm 16:06 Sunny 75 24 68 20 78 78 N N/A 30.00 1016 10 16 N/A
4:27 pm 16:27 Sunny 75 24 70 21 83 83 S 10 17 29.97 1015 10 16 N/A
4:47 pm 16:47 Sunny 75 24 68 20 78 78 S 7 11 30.00 1016 10 16 N/A
5:06 pm 17:06 Sunny 75 24 68 20 78 78 SSW 12 19 29.97 1015 10 16 N/A
5:27 pm 17:27 Sunny 75 24 68 20 78 78 SSW 8 13 29.97 1015 10 16 N/A
5:46 pm 17:46 Sunny 77 25 68 20 74 74 SW 12 19 29.97 1015 10 16 N/A
6:07 pm 18:07 Sunny 77 25 68 20 74 74 S 8 13 29.97 1015 10 16 N/A
6:27 pm 18:27 Sunny 77 25 68 20 74 74 S 9 15 29.97 1015 10 16 N/A
6:46 pm 18:46 Sunny 77 25 68 20 74 74 SSW 9 15 29.97 1015 10 16 N/A
7:07 pm 19:07 Sunny 77 25 68 20 74 74 SSW 9 15 29.97 1015 10 16 N/A
7:26 pm 19:26 Sunny 77 25 68 20 74 74 SSW 8 13 29.97 1015 10 16 N/A
7:46 pm 19:46 Sunny 77 25 68 20 74 74 SSE 3 6 29.94 1014 10 16 N/A
8:07 pm 20:07 Sunny 77 25 70 21 79 79 SSW 7 11 29.94 1014 10 16 N/A
8:26 pm 20:26 Sunny 77 25 70 21 79 79 S 8 13 29.94 1014 10 16 N/A
8:47 pm 20:47 Sunny 75 24 68 20 78 78 SSE 3 6 29.94 1014 10 16 N/A
9:07 pm 21:07 Sunny 73 23 68 20 83 83 ESE 7 11 29.94 1014 10 16 N/A
9:26 pm 21:26 Clear 73 23 68 20 83 83 S 5 7 29.97 1015 10 16 N/A
9:47 pm 21:47 Clear 72 22 68 20 88 88 SE 5 7 29.97 1015 10 16 N/A
10:06 pm 22:06 Clear 72 22 68 20 88 88 SSE 8 13 29.97 1015 10 16 N/A
10:26 pm 22:26 Clear 72 22 68 20 88 88 SSE 3 6 29.97 1015 10 16 N/A
10:47 pm 22:47 Mostly Cloudy 72 22 68 20 88 88 SSE 5 7 29.97 1015 10 16 N/A
11:06 pm 23:06 Mostly Cloudy 72 22 66 19 83 83 S 5 7 29.97 1015 10 16 N/A
11:27 pm 23:27 Partly Cloudy 70 21 66 19 88 88 SE 5 7 29.97 1015 10 16 N/A
11:47 pm 23:47 Mostly Cloudy 70 21 66 19 88 88 S 6 9 29.97 1015 10 16 N/A

Powered by AerisWeather